Location: Kellogg
(38.0159°N, 90.0546°W)
Time: 06:39:35
(UTC+00:00)

S-56A Canister/Altair - Pass Details

Date: 22 September 2024
Orbit: 636 x 2487 km, 38.9° (Epoch: 09 October)

Event Time Altitude Azimuth Distance (km) Brightness Sun altitude
Rises 06:11:14 0° 269° (W) 4,369 - -51.6°
Reaches altitude 10° 06:16:00 10° 245° (WSW) 3,787 - -51.5°
Maximum altitude 06:20:23 14° 219° (SW) 3,823 - -51.4°
Drops below altitude 10° 06:25:23 10° 194° (SSW) 4,453 - -51.2°
Sets 06:32:11 0° 172° (S) 5,815 - -50.8°
